#timestamp,LO_Frequency,Hit,StdDev 
1619845215.7,286047001.1,N
1619845235.6,286047000.0,N
1619845255.4,286047001.0,N
1619845275.2,286046998.5,N
1619845295.1,286046998.6,N
1619845296.0,286046998.6,N
1619845315.8,286047000.8,N
1619845335.7,286046999.0,N
1619845355.5,286047000.9,N
1619845375.3,286046999.5,N
1619845395.2,286046998.4,N
1619845415.0,286046998.2,N
1619845415.9,286046998.2,N
1619845435.7,286046998.8,N
1619845455.6,286046996.6,N
1619845475.4,286046999.0,N
1619845495.3,286046998.8,N
1619845515.1,286046999.0,N
1619845535.8,286046999.0,N
1619845555.7,286046999.4,N
1619845575.5,286046999.5,N
1619845595.4,286046998.3,N
1619845615.2,286046998.2,N
1619845635.0,286046998.6,N
1619845635.9,286046998.6,N
1619845655.8,286046998.7,N
1619845675.6,286046998.4,N
1619845695.4,286046998.4,N
1619845715.3,286047000.4,N
1619845735.1,286047002.0,N
1619845785.9,286047002.8,E
1619845795.8,286046998.7,N
1619845815.7,286046996.9,P
1619845835.5,286046999.8,N
1619845855.3,286047002.8,N
1619845875.2,286047002.2,N
1619845895.9,286047000.9,N
1619845915.7,286047000.5,N
1619845935.6,286047001.2,N
1619845955.4,286046998.8,N
1619845975.2,286047001.2,N
1619845995.1,286047000.5,N
1619845996.0,286047000.5,N
1619846015.8,286046999.9,N
1619846035.7,286046999.7,N
1619846055.5,286046998.7,N
1619846075.3,286046998.1,N
1619846095.2,286047001.0,N
1619846115.0,286047001.4,N
1619846115.9,286047001.4,N
1619846135.8,286047003.7,N
1619846155.6,286047001.9,N
1619846175.4,286047000.9,N
1619846195.3,286046999.9,N
1619846215.1,286047000.4,N
1619846235.8,286047000.3,N
1619846255.7,286047002.0,N
1619846275.5,286047002.5,N
1619846295.4,286047001.6,N
1619846315.2,286047004.2,N
1619846335.0,286046999.7,N
1619846335.9,286046999.7,N
1619846355.8,286047001.5,N
1619846375.6,286047001.8,N
1619846395.4,286047001.3,N
1619846415.3,286047004.0,Y
1619846435.1,286047001.5,P
1619846455.9,286047002.1,P
1619846475.7,286047002.7,P
1619846495.5,286047002.3,Y
1619846515.4,286046998.9,P
1619846535.2,286046999.4,N
1619846555.0,286046998.7,N
1619846556.0,286046998.7,N
1619846575.8,286047000.9,N
1619846595.6,286047000.1,N
1619846615.5,286046999.8,N
1619846635.3,286047000.5,N
1619846655.1,286047000.6,N
1619846675.9,286047001.0,N
1619846695.7,286047001.1,N
1619846715.6,286046998.6,N
1619846735.4,286047001.1,N
1619846755.2,286047001.1,N
1619846775.1,286046999.9,N
1619846776.0,286046999.9,N
1619846795.8,286047000.9,N
1619846815.6,286046998.7,N
1619846835.5,286046998.8,N
1619846855.3,286047000.7,N
1619846875.2,286046999.3,N
1619846895.9,286046998.9,N
1619846915.7,286046999.0,N
1619846935.6,286046997.2,N
1619846955.4,286046997.4,N
1619846975.2,286046994.9,Y
1619846995.1,286046997.8,P
1619846996.0,286046997.8,N
1619847015.8,286046995.3,P
1619847035.7,286046997.6,N
1619847055.5,286046997.2,N
1619847075.3,286046996.6,N
1619847095.2,286046997.4,N
1619847115.0,286046998.0,N
1619847115.9,286046998.0,N
1619847135.7,286046996.2,Y
1619847155.6,286046996.9,P
1619847175.4,286046997.6,P
1619847195.3,286046998.0,P
1619847215.1,286046995.1,Y
1619847216.0,286046995.1,P
1619847235.8,286046999.5,N
1619847255.7,286046997.8,N
1619847275.5,286046997.8,N
1619847295.4,286046995.7,Y
1619847315.2,286046998.2,P
1619847335.0,286046996.5,P
1619847335.9,286046996.5,P
1619847355.8,286046999.1,N
1619847375.6,286046997.7,N
1619847395.4,286046997.8,N
1619847415.3,286046999.6,N
1619847435.1,286046997.4,N
1619847455.9,286046999.0,N
1619847475.7,286046998.3,N
1619847495.5,286046998.3,N
1619847515.4,286046998.6,N
1619847535.2,286046999.0,N
1619847555.0,286046999.7,N
1619847555.9,286046999.7,N
1619847575.8,286046999.9,N
1619847595.6,286047002.8,N
1619847615.5,286047000.8,N
1619847635.3,286047001.0,N
1619847655.1,286047000.8,N
1619847675.9,286046998.5,N
1619847695.7,286046998.3,N
1619847715.5,286046999.4,N
1619847735.4,286047001.2,N
1619847755.2,286046998.7,N
1619847775.1,286046998.3,N
1619847776.0,286046998.3,N
1619847795.8,286046999.5,N
1619847815.6,286046997.3,N
1619847835.5,286046998.5,N
1619847855.3,286046999.3,N
1619847875.1,286046998.4,N
1619847895.9,286046999.0,N
1619847915.7,286046996.7,N
1619847935.6,286046999.4,N
1619847955.4,286046999.1,N
1619847975.2,286046999.3,N
1619847995.1,286047000.6,N
1619847996.0,286047000.6,N
1619848015.8,286047001.1,N
1619848035.7,286046998.5,N
1619848055.5,286047000.1,N
1619848075.3,286047000.0,N
1619848095.2,286046999.8,N
1619848115.9,286047001.1,N
1619848135.7,286046998.9,N
1619848155.6,286047001.2,N
1619848175.4,286046998.2,N
1619848195.2,286046998.1,N
1619848215.1,286046998.5,N
1619848216.0,286046998.5,N
1619848235.8,286046998.4,N
1619848255.7,286046998.2,N
1619848275.5,286046998.3,N
1619848295.3,286046996.7,Y
1619848315.2,286046998.1,P
1619848335.0,286047000.7,N
1619848335.9,286047000.7,N
1619848355.8,286047001.1,N
1619848375.6,286047000.7,N
1619848395.4,286047000.3,N
1619848415.3,286047000.8,N
1619848435.1,286047000.5,N
1619848455.9,286047001.0,N
1619848475.7,286047001.1,N
1619848495.5,286046998.5,N
1619848515.4,286046999.0,N
1619848535.2,286046998.6,N
1619848555.0,286046998.9,N
1619848556.0,286046998.9,N
1619848575.8,286046999.6,N
1619848595.6,286046998.1,N
1619848615.5,286047001.0,N
1619848635.3,286047000.6,N
1619848655.1,286047000.6,N
1619848675.9,286046998.5,N
1619848695.7,286047001.2,N
1619848715.6,286046999.0,N
1619848735.4,286046999.6,N
1619848755.2,286046999.4,N
1619848775.1,286046999.4,N
1619848776.0,286046999.4,N
1619848795.8,286046998.2,N
